Tracking 23114 objects as of 16-May-2021
HD Live streaming from Space Station
objects crossing your sky now

ARIANE 1 DEB

Track ARIANE 1 DEB now!
10-day predictions


NORAD ID: 40780
Int'l Code: 1979-104AH
Perigee: 514.4 km
Apogee: 20,879.8 km
Inclination: 18.8 °
Period: 369.9 minutes
Semi major axis: 17068 km
RCS: Unknown
Launch date: December 24, 1979
Source: European Space Agency (ESA)
Launch site: FRENCH GUIANA (FRGUI)

Note: This is SATELLITE DEBRIS
aabbcc
Your satellite tracking list
Your tracking list is empty




NASA's NSSDC Master Catalog

Two Line Element Set (TLE):
1 40780U 79104AH  21131.33132026 -.00000043  00000-0 -11216-3 0  9991
2 40780  18.8224 171.3586 5965906 117.2517 314.6028  3.89335514258124
Source of the keplerian elements: AFSPC